Regional Weather Roundup
Issued by NWS

Home | Current Version | Previous Version | Graphics & Text | Print | Product List | Glossary On
Versions: 1 2 3 4 5 6 7 8 9 10 11 12 13 14 15 16 17 18 19 20 21 22 23 24 25 26 27 28 29 30 31 32 33 34 35 36 37 38 39 40 41 42 43 44 45 46 47 48 49 50
000
ASUS43 KLOT 021103
RWRIL

ILLINOIS REGIONAL WEATHER ROUNDUP
NATIONAL WEATHER SERVICE CHICAGO/ROMEOVILLE IL
600 AM CDT MON MAY 02 2016

NOTE: "FAIR" INDICATES FEW OR NO CLOUDS BELOW 12,000 FEET WITH NO
SIGNIFICANT WEATHER AND/OR OBSTRUCTIONS TO VISIBILITY.

* THESE STATIONS ARE NOT UNDER NWS QUALITY CONTROL. THEY ALSO MAY NOT
  REPORT WEATHER SUCH AS PRECIPITATION OR FOG.

ILZ001-002-007-009-015-016-024-021200-
NORTHWEST ILLINOIS

CITY           SKY/WX    TMP DP  RH WIND       PRES   REMARKS
MOLINE         CLOUDY    49  45  86 NE6       30.07R
STERLING*      CLOUDY    46  45  93 N6        30.07S
$$

ILZ003-004-008-010-011-017-018-021200-
NORTH CENTRAL ILLINOIS

CITY           SKY/WX    TMP DP  RH WIND       PRES   REMARKS
ROCKFORD       CLOUDY    47  44  90 N7        30.08R
FREEPORT*      CLOUDY    46  43  92 NE3       30.09R
ROCHELLE*      CLOUDY    45  42  89 N7        30.06S
DE KALB*       CLOUDY    45  40  85 N9        30.06R
$$

ILZ005-006-012>014-019>023-021200-
NORTHEAST ILLINOIS

CITY           SKY/WX    TMP DP  RH WIND       PRES   REMARKS
CHICAGO-OHARE  MOCLDY    45  37  73 N7        30.04R
CHICAGO-MIDWAY MOCLDY    46  37  71 NE13      30.03S
AURORA         CLOUDY    46  40  79 NE10      30.04S
LANSING*       CLOUDY    44  40  86 NE13G21   30.02R
WAUKEGAN       PTCLDY    43  40  89 N5        30.05R
DUPAGE AIRPORT CLOUDY    43  37  79 N9        30.04S
WHEELING       CLOUDY    43  37  79 N6        30.06R
MORRIS*        MOCLDY    44  41  89 CALM      30.03R
NORTHERLY ISL    N/A     44  38  79 MISG        N/A
NORTHERLY ISL    N/A     44  38  79 MISG        N/A
$$

LMZ740>746-021200-
SOUTHERN LAKE MICHIGAN

STATION/POSITION SKY/WX   TEMP    WIND        PRES    VSBY  WAVE
                          AIR SEA DIR/SP/G                  HT/PER
                          (F)     (DEG/KT/KT) (MB)    (MI)  (FT/S)
SOUTHERN BUOY              42 40   30/ 10/ 12 1017.1          1/ 4
HARRISON CRIB              45      20/ 17/ 18   N/A
BURNHAM HARBOR             44     360/  9/ 15   N/A
CALUMET HARBOR             44      10/ 11/ 16 1016.3R
BURNS HARBOR               45      30/ 19/ 23 1016.6R
MICHIGAN CITY              43     360/ 21/ 22   N/A
ST. JOSEPH                 45 47                N/A           3/ 4
$$

ILZ025>027-034>036-040-047-049-050-058-095>099-021200-
WEST-CENTRAL ILLINOIS

CITY           SKY/WX    TMP DP  RH WIND       PRES   REMARKS
QUINCY         CLOUDY    49  47  93 N7        30.05S
MACOMB*        CLOUDY    47  46  96 N5        30.08S
PITTSFIELD*    CLOUDY    50  49  93 N6        30.05F
$$

ILZ028>032-037-038-041>044-048-051>054-059>061-021200-
CENTRAL ILLINOIS

CITY           SKY/WX    TMP DP  RH WIND       PRES   REMARKS
BLOOMINGTON    CLOUDY    48  48 100 N12       30.03S FOG
DECATUR        CLOUDY    50  45  83 N10       30.04R
PEORIA         CLOUDY    48  45  89 N5        30.05R
LINCOLN*       CLOUDY    49  48  95 N6        30.04R
SPRINGFIELD    CLOUDY    51  47  86 NW7       30.05R
TAYLORVILLE    NOT AVBL
$$

ILZ033-039-045-046-055>057-062-063-021200-
EAST-CENTRAL ILLINOIS

CITY           SKY/WX    TMP DP  RH WIND       PRES   REMARKS
CHAMPAIGN      CLOUDY    49  47  93 NW10      30.01R
MATTOON        CLOUDY    51  46  83 NW12      30.01R
$$

ILZ079-100>102-021200-
SOUTHWEST ILLINOIS

CITY           SKY/WX    TMP DP  RH WIND       PRES   REMARKS
ALTON          LGT RAIN  51  47  88 N9        30.01F
CAHOKIA*       MOCLDY    53  47  79 N6        30.04F
SPARTA*        CLOUDY    53  47  81 NW6       30.05F
$$

ILZ064>066-069>071-074>076-080>082-084>086-088>090-092>094-021200-
SOUTH-CENTRAL ILLINOIS

CITY           SKY/WX    TMP DP  RH WIND       PRES   REMARKS
CARBONDALE     PTCLDY    52  48  86 N6        30.03F
CAIRO*         CLOUDY    54  51  89 N9        30.04S
EFFINGHAM*     LGT RAIN  52  50  91 NW10G16   30.03F
MT. VERNON     CLOUDY    52  45  76 CALM      30.03F
SALEM*         CLOUDY    53  49  85 W6        30.03R
$$

ILZ067-068-072-073-078-083-087-091-021200-
SOUTHEAST ILLINOIS

CITY           SKY/WX    TMP DP  RH WIND       PRES   REMARKS
LAWRENCEVILLE  CLOUDY    54  50  86 NW8       30.02R
FLORA*         CLOUDY    54  51  89 NW6       30.01F
HARRISBURG*    CLOUDY    52  50  90 CALM      30.03F
ROBINSON*      CLOUDY    52  49  88 NW7       30.03R
CARMI*         CLOUDY    53  51  93 NW6       30.02S
$$

ABBREVIATIONS USED IN REMARKS
   TC - TEMPERATURE IN CELSIUS
  WCI - WIND CHILL INDEX
   HX - HEAT INDEX
  VSB - VISIBILITY
$$





USA.gov is the U.S. government's official web portal to all federal, state and local government web resources and services.